[[{"header":{"parameterUnit":"m.s-1","parameterCategory":1,"la1":30.2991,"la2":30.254,"lo1":-89.0895,"lo2":-89.0444,"dy":0.0017,"dx":0.0017,"nx":28,"ny":28,"refTime":"2025-04-16T03:00:00:Z","depth":0,"parameterNumber":2,"parameterNumberName":"U-component_of_WINDS"},"data":[0,0,0,0,0,0,0,0,0,0,0,0,0,0,0,0,0,0,0,0,0,0,0,0,0,0,0,0,0,0,0,0,0,0,0,0,0,0,0,0,0,0,0,0,0,0,0,0,0,0,0,0,0,0,0,0,0,0,-3.7529,-3.7528,0,-3.7441,-3.744,-3.7439,-3.7266,-3.7263,-3.726,-3.7256,-3.7171,-3.7172,-3.7173,0,0,0,0,0,0,0,0,0,0,0,0,0,-3.7552,-3.7553,-3.7529,-3.7528,-3.7527,-3.7442,-3.744,-3.7439,-3.7267,-3.7263,-3.7259,-3.7255,-3.7171,-3.7172,-3.7173,0,0,0,0,0,0,0,0,0,0,0,0,0,-3.7512,-3.7553,-3.7529,-3.743,-3.7421,-3.7442,-3.744,-3.7439,-3.7268,-3.7263,-3.7258,-3.7253,-3.717,-3.7172,-3.7173,-3.7284,0,0,-3.7177,-3.7178,0,0,0,0,0,0,0,0,-3.7514,-3.7511,-3.7446,-3.7437,-3.7426,-3.7359,-3.7417,-3.7387,-3.7269,-3.7326,-3.7256,-3.725,-3.7238,-3.7234,-3.7229,-3.728,-3.7277,-3.7177,-3.7178,-3.7179,-3.7179,0,0,0,0,0,0,0,-3.7517,-3.7514,-3.7494,-3.7445,-3.7433,-3.7392,-3.7381,-3.7411,-3.7312,-3.7321,-3.7308,-3.73,-3.7232,-3.7228,-3.7225,-3.7275,-3.7177,-3.7179,-3.7179,-3.718,-3.7417,-3.7422,0,0,0,0,0,0,-3.7534,-3.7517,-3.7497,-3.7492,-3.7458,-3.7396,-3.7383,-3.7386,-3.7311,-3.7295,-3.7304,-3.7292,-3.7228,-3.7224,-3.7222,-3.7348,-3.7179,-3.718,-3.7181,-3.7411,-3.7418,-3.7424,0,0,0,0,0,0,-3.7535,-3.7534,-3.7501,-3.7501,-3.7494,-3.7401,-3.7406,-3.7387,-3.7383,-3.7299,-3.7281,-3.7318,-3.7224,-3.722,-3.727,-3.7343,-3.7181,-3.7182,-3.7405,-3.7413,-3.7421,-3.7602,0,0,0,0,0,0,-3.7536,-3.7535,-3.7575,-3.7503,-3.7494,-3.755,-3.741,-3.7389,-3.7385,-3.7368,-3.7307,-3.7292,-3.7219,-3.7269,-3.7272,-3.7342,-3.7183,-3.7398,-3.7409,-3.7418,-3.7589,-3.7615,-3.7638,0,0,0,0,0,-3.7538,-3.763,-3.7578,-3.7576,-3.7542,-3.7554,-3.7549,-3.7463,-3.7392,-3.7432,-3.7378,-3.7294,-3.7335,-3.7276,-3.7277,-3.7349,-3.7393,-3.7406,-3.7417,-3.7578,-3.761,-3.7637,0,0,0,0,0,0,-3.7713,-3.7618,-3.756,-3.7631,-3.7602,-3.7525,-3.7572,-3.7499,-3.7491,-3.7475,-3.737,-3.7358,-3.7423,-3.7391,-3.7327,-3.7454,-3.735,-3.7364,-3.7472,-3.7502,-3.7526,-3.7532,-3.7184,0,0,0,0,0,-3.776,-3.7776,-3.7693,-3.7764,-3.7752,-3.7666,-3.7668,-3.7604,-3.757,-3.7557,-3.7507,-3.7479,-3.7485,-3.7492,-3.7493,-3.7584,-3.7569,-3.7634,-3.7659,-3.7679,-3.7692,-3.7739,-3.7768,-3.7464,-3.7464,-3.7464,0,0,-3.7857,-3.7807,-3.7824,-3.7798,-3.7768,-3.7789,-3.7656,-3.7684,-3.7699,-3.7562,-3.7606,-3.7569,-3.7531,-3.7603,-3.7632,-3.7578,-3.7772,-3.7695,-3.7712,-3.7713,-3.7755,-3.7784,-3.7809,-3.7472,-3.7471,-3.747,0,0,-3.8045,-3.8008,-3.8064,-3.8037,-3.7993,-3.7935,-3.7949,-3.7883,-3.7853,-3.7896,-3.7794,-3.7812,-3.7825,-3.7802,-3.7793,-3.7975,-3.7898,-3.7979,-3.8106,-3.8154,-3.8178,-3.8198,-3.8265,-3.829,-3.7992,-3.7992,-3.7993,0,-3.8171,-3.8197,-3.8102,-3.8136,-3.8129,-3.8006,-3.8063,-3.8041,-3.8001,-3.8,-3.794,-3.7955,-3.792,-3.7986,-3.8031,-3.8027,-3.8041,-3.7985,-3.8182,-3.8201,-3.8219,-3.8282,-3.8307,-3.8002,-3.8001,-3.8,-3.7999,0,-3.8355,-3.8375,-3.8426,-3.8389,-3.8388,-3.8433,-3.8348,-3.8358,-3.8296,-3.8245,-3.8292,-3.8247,-3.8237,-3.8248,-3.8188,-3.8307,-3.8275,-3.82,-3.8094,-3.826,-3.8317,-3.834,-3.8017,-3.8013,-3.801,-3.8008,0,0,-3.8649,-3.8561,-3.8581,-3.8564,-3.8507,-3.8522,-3.8564,-3.8554,-3.8565,-3.8543,-3.8576,-3.8591,-3.8522,-3.8512,-3.8448,-3.849,-3.864,-3.841,-3.8407,-3.8455,-3.877,-3.8827,-3.8856,-3.8588,-3.8592,-3.8595,-3.8774,0,-3.8824,-3.8887,-3.8805,-3.8888,-3.8906,-3.8791,-3.8827,-3.8799,-3.8753,-3.8764,-3.8714,-3.8727,-3.8634,-3.8628,-3.8664,-3.8614,-3.8702,-3.86,-3.862,-3.8622,-3.8633,-3.8885,-3.8944,-3.9114,-3.8795,-3.8799,-3.8801,0,-3.9036,-3.9023,-3.9108,-3.9048,-3.9053,-3.9087,-3.9072,-3.9083,-3.9049,-3.9014,-3.9004,-3.8927,-3.8966,-3.8864,-3.8918,-3.885,-3.8854,-3.8831,-3.8836,-3.8834,-3.8722,-3.8891,-3.9166,-3.9193,-3.8835,-3.8832,-3.883,0,-3.9243,-3.9247,-3.9298,-3.9287,-3.9218,-3.9246,-3.9219,-3.9179,-3.9179,-3.9168,-3.9167,-3.9161,-3.9158,-3.9156,-3.9082,-3.9014,-3.9145,-3.9036,-3.9118,-3.9121,-3.9151,-3.915,-3.9431,-3.9154,-3.9153,-3.9153,-3.9152,0,-3.9447,-3.9503,-3.939,-3.9422,-3.9483,-3.9389,-3.9453,-3.9414,-3.9381,-3.9405,-3.9306,-3.9331,-3.923,-3.9246,-3.9188,-3.9242,-3.9241,-3.9215,-3.9199,-3.9224,-3.9228,-3.9225,-3.9211,-3.9159,-3.9158,-3.9157,-3.9155,0,-3.9687,-3.9613,-3.9662,-3.9594,-3.9578,-3.9627,-3.9569,-3.9597,-3.9546,-3.9578,-3.958,-3.9501,-3.9514,-3.944,-3.944,-3.9401,-3.9484,-3.9448,-3.9495,-3.9484,-3.9571,-3.9564,-3.986,-3.9895,-3.9596,-3.9599,-3.9601,0,-3.9822,-3.9863,-3.9799,-3.9808,-3.9786,-3.9801,-3.9801,-3.9711,-3.9716,-3.9682,-3.9715,-3.9719,-3.9718,-3.9745,-3.9689,-3.9689,-3.9652,-3.9756,-3.9651,-3.9676,-3.9654,-3.9653,-3.9658,-3.9778,-3.9781,-3.9784,-3.9787,0,-4.007,-4.0032,-4.0034,-4.0026,-4.0028,-4.0017,-4.0,-4.0013,-3.9916,-3.9927,-3.9939,-3.9938,-3.9938,-3.9945,-3.9934,-3.9908,-3.9833,-3.9821,-3.984,-3.9865,-3.9892,-3.988,-3.9555,-3.9814,-3.9811,-3.9809,-3.9808,-3.9807,-4.0261,-4.0293,-4.0254,-4.0261,-4.0239,-4.0225,-4.0249,-4.0201,-4.0209,-4.0201,-4.0149,-4.0171,-4.0139,-4.0116,-4.0099,-4.0116,-4.0067,-4.0094,-4.0101,-4.011,-4.0125,-3.9889,-4.0114,-4.0113,-4.0112,-4.0111,-4.0111,0,-4.0504,-4.0474,-4.0481,-4.046,-4.0467,-4.0394,-4.0372,-4.0383,-4.0404,-4.0379,-4.0381,-4.0396,-4.0403,-4.0348,-4.0348,-4.0373,-4.0339,-4.0377,-4.0374,-4.037,-4.0169,-4.0153,-4.0405,-4.0404,-4.0404,-4.0404,-4.0404,-4.0404,-4.0631,-4.0681,-4.064,-4.0679,-4.0648,-4.0668,-4.0662,-4.0651,-4.0631,-4.0652,-4.0657,-4.0621,-4.0585,-4.0583,-4.0587,-4.0571,-4.0576,-4.0626,-4.0599,-4.0412,-4.0383,-4.0356,-4.034,-4.0628,-4.0628,-4.0798,-4.0799,-4.08]},{"header":{"parameterUnit":"m.s-1","parameterCategory":1,"la1":30.2991,"la2":30.254,"lo1":-89.0895,"lo2":-89.0444,"dy":0.0017,"dx":0.0017,"nx":28,"ny":28,"refTime":"2025-04-16T03:00:00:Z","depth":0,"parameterNumber":3,"parameterNumberName":"V-component_of_WINDS"},"data":[0,0,0,0,0,0,0,0,0,0,0,0,0,0,0,0,0,0,0,0,0,0,0,0,0,0,0,0,0,0,0,0,0,0,0,0,0,0,0,0,0,0,0,0,0,0,0,0,0,0,0,0,0,0,0,0,0,0,1.2311,1.231,0,1.2246,1.2245,1.2244,1.2242,1.2243,1.2244,1.2245,1.2172,1.217,1.2167,0,0,0,0,0,0,0,0,0,0,0,0,0,1.2431,1.2429,1.2311,1.231,1.231,1.2246,1.2245,1.2244,1.2242,1.2243,1.2244,1.2245,1.2173,1.217,1.2167,0,0,0,0,0,0,0,0,0,0,0,0,0,1.2373,1.2428,1.2311,1.2301,1.2299,1.2246,1.2245,1.2244,1.2242,1.2243,1.2244,1.2245,1.2174,1.217,1.2166,1.2117,0,0,1.2154,1.2152,0,0,0,0,0,0,0,0,1.2377,1.2369,1.2303,1.2302,1.23,1.2253,1.2261,1.2201,1.2241,1.2263,1.2245,1.2246,1.2198,1.2192,1.2177,1.2114,1.211,1.2154,1.2151,1.2149,1.2148,0,0,0,0,0,0,0,1.2381,1.2372,1.2285,1.2302,1.23,1.2298,1.2292,1.2249,1.2224,1.2262,1.2261,1.2254,1.2197,1.2181,1.2175,1.2109,1.2154,1.215,1.2148,1.2146,1.2003,1.2002,0,0,0,0,0,0,1.2387,1.2375,1.2287,1.2283,1.2342,1.2295,1.2288,1.2267,1.2225,1.222,1.2253,1.2254,1.2187,1.218,1.2173,1.2112,1.2149,1.2146,1.2143,1.2004,1.2003,1.2001,0,0,0,0,0,0,1.239,1.2379,1.229,1.2329,1.2318,1.2292,1.2269,1.2265,1.2249,1.2219,1.2214,1.2241,1.2188,1.2178,1.2131,1.2109,1.2144,1.214,1.2006,1.2004,1.2002,1.199,0,0,0,0,0,0,1.2393,1.238,1.2362,1.2329,1.2315,1.2251,1.2267,1.2263,1.2242,1.2243,1.2206,1.2201,1.2188,1.2137,1.2127,1.2104,1.2137,1.2008,1.2005,1.2002,1.1992,1.1988,1.1984,0,0,0,0,0,1.2398,1.236,1.2361,1.235,1.2292,1.2249,1.2242,1.2229,1.2241,1.2221,1.2202,1.2202,1.2114,1.2133,1.2121,1.2097,1.2009,1.2006,1.2003,1.1994,1.1989,1.1984,0,0,0,0,0,0,1.2389,1.2355,1.2356,1.2307,1.2281,1.2249,1.2224,1.2224,1.2192,1.2194,1.2179,1.217,1.2123,1.2106,1.2127,1.2047,1.2063,1.2057,1.206,1.2055,1.2051,1.2055,1.2134,0,0,0,0,0,1.2382,1.2352,1.2323,1.2283,1.227,1.225,1.223,1.2223,1.2195,1.2184,1.2161,1.2132,1.2098,1.2076,1.2043,1.1991,1.1982,1.1969,1.1965,1.1961,1.1956,1.1927,1.192,1.1991,1.1991,1.1991,0,0,1.2366,1.2344,1.2325,1.228,1.226,1.2227,1.224,1.2205,1.218,1.2178,1.2132,1.2115,1.2082,1.2032,1.2009,1.2016,1.1935,1.1957,1.1955,1.1951,1.1923,1.1916,1.191,1.1989,1.1989,1.1989,0,0,1.232,1.2301,1.2265,1.2245,1.2214,1.2201,1.2193,1.2161,1.215,1.2105,1.2102,1.2072,1.2014,1.1991,1.1971,1.1919,1.1918,1.1909,1.1887,1.1859,1.1853,1.1848,1.1828,1.1822,1.1904,1.1904,1.1904,0,1.2303,1.2255,1.2246,1.2211,1.2191,1.2191,1.2154,1.2134,1.2093,1.2079,1.2088,1.2016,1.1993,1.1938,1.1926,1.1911,1.1899,1.1912,1.1855,1.185,1.1845,1.1826,1.1819,1.1903,1.1904,1.1904,1.1904,0,1.2236,1.2203,1.2178,1.2141,1.2118,1.2082,1.2067,1.2045,1.2041,1.2027,1.1981,1.1955,1.1917,1.1903,1.1898,1.1848,1.1853,1.1859,1.1873,1.1838,1.1819,1.1812,1.1902,1.1902,1.1903,1.1903,0,0,1.218,1.2141,1.2131,1.2115,1.2082,1.2055,1.202,1.1985,1.1966,1.1939,1.1907,1.186,1.1865,1.1843,1.1836,1.1811,1.1771,1.182,1.1819,1.1811,1.1713,1.1708,1.1699,1.1771,1.177,1.1768,1.1716,0,1.2129,1.2067,1.2059,1.2003,1.1972,1.1973,1.1941,1.1917,1.1904,1.1875,1.186,1.1825,1.1836,1.1823,1.1799,1.1781,1.1751,1.1785,1.174,1.1738,1.1746,1.169,1.1684,1.1635,1.1709,1.1707,1.1706,0,1.2061,1.2034,1.1976,1.1949,1.1935,1.1908,1.1875,1.1848,1.1821,1.1813,1.179,1.1786,1.1748,1.1766,1.1713,1.1737,1.1718,1.1707,1.1705,1.1698,1.1719,1.168,1.1619,1.1611,1.1695,1.1696,1.1697,0,1.2024,1.1974,1.1933,1.1919,1.1886,1.1867,1.1852,1.1826,1.1806,1.1777,1.1764,1.1731,1.1712,1.1686,1.1673,1.1688,1.162,1.1638,1.1611,1.1611,1.1595,1.1596,1.1528,1.1586,1.1586,1.1586,1.1587,0,1.1967,1.1932,1.1916,1.189,1.185,1.1841,1.1801,1.1787,1.1765,1.1735,1.1734,1.1706,1.1691,1.1661,1.1651,1.1608,1.16,1.1591,1.1588,1.159,1.1591,1.1576,1.1578,1.1584,1.1585,1.1585,1.1586,0,1.1918,1.1907,1.1862,1.1836,1.1829,1.18,1.1777,1.1752,1.174,1.1703,1.1694,1.1674,1.1639,1.1624,1.158,1.1573,1.1524,1.1524,1.1533,1.1532,1.1505,1.1507,1.1424,1.1412,1.148,1.1479,1.1479,0,1.1882,1.1855,1.1827,1.1808,1.1793,1.1763,1.1743,1.1734,1.1713,1.1681,1.1659,1.1625,1.1596,1.154,1.1521,1.1487,1.1486,1.1459,1.1481,1.1484,1.1484,1.1485,1.1482,1.1454,1.1454,1.1453,1.1453,0,1.1818,1.1814,1.1786,1.1757,1.1734,1.1709,1.1686,1.167,1.1657,1.1634,1.1599,1.1577,1.1534,1.1499,1.1465,1.1448,1.1447,1.1447,1.1438,1.1439,1.1445,1.144,1.1521,1.1448,1.1448,1.1449,1.1449,1.1449,1.1773,1.1749,1.1726,1.1695,1.1677,1.1655,1.1631,1.1617,1.1588,1.1553,1.155,1.1512,1.1486,1.1441,1.1423,1.1393,1.1399,1.1388,1.1384,1.1381,1.1379,1.1452,1.1387,1.1387,1.1387,1.1387,1.1387,0,1.1707,1.1693,1.1665,1.1634,1.1609,1.1614,1.1589,1.1568,1.1535,1.1513,1.1486,1.1446,1.1413,1.1392,1.1359,1.1338,1.1337,1.1329,1.133,1.1326,1.1376,1.1386,1.1331,1.1331,1.1331,1.1331,1.1331,1.1331,1.167,1.163,1.1624,1.1574,1.156,1.1525,1.151,1.149,1.1472,1.1428,1.1401,1.1389,1.1367,1.1332,1.1302,1.1297,1.1283,1.1275,1.127,1.1316,1.1322,1.1328,1.1337,1.1273,1.1273,1.1222,1.1222,1.1222]}]]